Regional Weather Roundup
Issued by NWS New Orleans/Baton Rouge, LA

Home | Current Version | Previous Version | Text Only | Print | Product List | Glossary On
Versions: 1 2 3 4 5 6 7 8 9 10 11 12 13 14 15 16 17 18 19 20 21 22 23 24 25 26 27 28 29 30 31 32 33 34 35 36 37 38 39 40 41 42 43 44 45 46 47 48 49 50
949
ASUS44 KLIX 251401
RWRLIX
NEW ORLEANS REGIONAL WEATHER ROUNDUP
NATIONAL WEATHER SERVICE NEW ORLEANS LA
800 AM CST TUE NOV 25 2014

NOTE: "FAIR" INDICATES FEW OR NO CLOUDS BELOW 12,000 FEET WITH NO
      SIGNIFICANT WEATHER AND/OR OBSTRUCTIONS TO VISIBILITY.
      SKY/WX - SKY CONDITION AND SIGNIFICANT WEATHER.
      TMP - AIR TEMPERATURE.     DP    - DEWPOINT TEMPERATURE.
      RH  - RELATIVE HUMIDITY.   PRES  - PRESSURE.
      HI  - HEAT INDEX.          WCI   - WIND CHILL INDEX.

*  THESE STATIONS ARE NOT NWS OR FAA STATIONS AND ARE NOT UNDER
   NWS QUALITY CONTROL.

LAZ038-040-048-061>063-065>067-069-251500-
SOUTHEAST LOUISIANA

CITY           SKY/WX    TMP DP  RH WIND       PRES   REMARKS
N.O. AUDUBON     N/A     55  39  54 MISG        N/A
N.O. INTL ARPT PTSUNNY   54  38  54 N14       30.17R
N.O. LAKEFRONT MOSUNNY   56  39  53 N15       30.17R
N.O. DOWNTOWN*   N/A     54  36  50 N10G16    30.17R
SLIDELL        MOSUNNY   50  39  66 N7        30.16R
BATON ROUGE    MOSUNNY   47  35  63 N5        30.19R
BOOTHVILLE     PTSUNNY   58  41  53 NE21G29   30.12R
BELLE CHASSE   CLOUDY    55  35  47 N8        30.15R
BOGALUSA*        N/A     49  41  73 N5        30.19R
NEW ROADS*     NOT AVBL
GONZALES*      NOT AVBL
HAMMOND*       NOT AVBL
HOUMA*         CLOUDY    54  39  58 N12       30.15S
PORT FOURCHON* PTSUNNY   57  41  54 N16G23    30.16R

$$

MSZ070-080>082-251500-
SOUTHERN MISSISSIPPI

CITY           SKY/WX    TMP DP  RH WIND       PRES   REMARKS
MCCOMB         SUNNY     50  30  46 N9        30.19R
GULFPORT       PTSUNNY   52  36  54 N8        30.14R
BILOXI         PTSUNNY   53  38  56 N9        30.13S
PASCAGOULA     PTSUNNY   53  37  54 N10       30.13R
STENNIS ARPT*  SUNNY     48  36  61 N7        30.16R

$$

COASTAL OBSERVATIONS
LAKE AND NEARSHORE STATIONS

STATION/POSITION TIME  TEMP    WIND        PRES    WAVE
                       AIR SEA DIR/SP/G            HT/PER
                 (UTC) (F)     (DEG/KT/KT) (MB)    (FT/S)
PASCAGOULA       1300   53     360/ 10/ 16 1019.2
WAVELAND YACHT   1300   53      10/ 11/ 13 1019.9
GRAND ISLE       1300   58 64   40/ 15/ 25 1020.3
SOUTHWEST PASS   1300   60                 1019.3
NEW CANAL        1300   54 56   30/ 14/ 17 1021.5
SHELL BEACH      1300   55 54   10/ 18/ 21 1020.4

OFFSHORE STATIONS

STATION/POSITION TIME  TEMP    WIND        PRES    WAVE
                       AIR SEA DIR/SP/G            HT/PER
                 (UTC) (F)     (DEG/KT/KT) (MB)    (FT/S)
64 S DAUPHIN ISL 1259   61 71   40/ 27/ 31 1018.1    8/ 7

$$




USA.gov is the U.S. government's official web portal to all federal, state and local government web resources and services.